This is the latest recevied weather packets stored in our database for station/object WD9EKA. If no packets are shown the sender has not sent any weather packets the latest 10 day(s).
| Time | Temp. | Humidity | Pressure | Rain* | Wind** | Luminosity | Snow |
|---|---|---|---|---|---|---|---|
| 1777947154 | 20.56° C | 57% | 999.1 hPa | 0 mm | - | - | - |
| 1777946794 | 20.56° C | 57% | 999.1 hPa | 0 mm | - | - | - |
| 1777946434 | 20.56° C | 56% | 998.8 hPa | 0 mm | - | - | - |
| 1777946074 | 20.56° C | 56% | 998.9 hPa | 0 mm | - | - | - |
| 1777945714 | 20° C | 57% | 998.6 hPa | 0 mm | - | - | - |
| 1777945354 | 20.56° C | 57% | 998.6 hPa | 0 mm | - | - | - |
| 1777945047 | 20.56° C | 56% | 998.5 hPa | 0 mm | - | - | - |
| 1777944727 | 20.56° C | 56% | 998.7 hPa | 0 mm | - | - | - |
| 1777944407 | 20.56° C | 55% | 998.6 hPa | 0 mm | - | - | - |
| 1777944094 | 20.56° C | 55% | 998.6 hPa | 0 mm | - | - | - |
| 1777943374 | 21.11° C | 54% | 998.7 hPa | 0 mm | - | - | - |
| 1777943014 | 21.11° C | 54% | 998.6 hPa | 0 mm | - | - | - |
| 1777942679 | 21.11° C | 55% | 998.5 hPa | 0 mm | - | - | - |
| 1777942359 | 21.11° C | 55% | 998.4 hPa | 0 mm | - | - | - |
| 1777942054 | 21.11° C | 54% | 998.5 hPa | 0 mm | - | - | - |
| 1777941694 | 21.11° C | 54% | 998.1 hPa | 0 mm | - | - | - |
| 1777941334 | 21.11° C | 53% | 998.2 hPa | 0 mm | - | - | - |
| 1777940974 | 21.67° C | 54% | 998.2 hPa | 0 mm | - | - | - |
| 1777940674 | 21.67° C | 52% | 998.1 hPa | 0 mm | - | - | - |
| 1777940314 | 21.67° C | 53% | 998.2 hPa | 0 mm | - | - | - |
| 1777939954 | 22.22° C | 52% | 998.3 hPa | 0 mm | - | - | - |
| 1777939294 | 22.22° C | 52% | 998.5 hPa | 0 mm | - | - | - |
| 1777938934 | 22.22° C | 51% | 998.3 hPa | 0 mm | - | - | - |
| 1777938574 | 22.78° C | 52% | 998.4 hPa | 0 mm | - | - | - |
| 1777938214 | 22.78° C | 50% | 998.4 hPa | 0 mm | - | - | - |
* Rain latest hour (hover to see other rain measurements)
** Current wind speed in m/s (hover to see current wind gust speed)